Regional Weather Roundup
Issued by NWS Goodland, KS

Home | Current Version | Previous Version | Text Only | Print | Product List | Glossary Off
Versions: 1 2 3 4 5 6 7 8 9 10 11 12 13 14 15 16 17 18 19 20 21 22 23 24 25 26 27 28 29 30 31 32 33 34 35 36 37 38 39 40 41 42 43 44 45 46 47 48 49 50

000
ASUS43 KGLD 161008
RWRGLD

GOODLAND FORECAST AREA HOURLY WEATHER ROUNDUP
NATIONAL WEATHER SERVICE GOODLAND KS
300 AM MST MON JAN 16 2017

...OFFICIAL OBSERVATIONS...

CITY           SKY/WX    TMP DP  RH WIND       PRES   REMARKS
GOODLAND KS    FRZ RAIN  30  29  96 N16       29.89F WCI  19
HILL CITY KS   FRZ RAIN  32  31  96 N10       29.91F FOG
IMPERIAL NEB   FRZ RAIN  32  30  92 N10       29.95F FOG
MCCOOK NEB     MIX PCPN  31  31 100 N8        29.96F FOG
AKRON CO       MIX PCPN  28  26  92 N14       29.92F FOG     WCI  17
BURLINGTON CO  FRZ RAIN  31  29  92 N16       29.89F FOG     WCI  20
LIMON CO       LGT SNOW  27  26  96 NW17      29.89F FOG     WCI  14
$$

...UNOFFICIAL OBSERVATIONS...

CITY           SKY/WX    TMP DP  RH WIND       PRES   REMARKS
LENORA KS        N/A     31  32 100 CALM        N/A
NORTON KS      MIX PCPN  30  28  93 N8        29.92F
SHARON SPRINGS   N/A     31  30  95 N8          N/A
TRENTON NEB      N/A     30  32 100 CALM        N/A
KIT CARSON CO    N/A     30  27  90 CALM        N/A
YUMA CO        LGT SNOW  28  28 100 NW7       29.93S
$$




USA.gov is the U.S. government's official web portal to all federal, state and local government web resources and services.